Weather History for Akron, OH

Change the Weather History Date:

Wednesday, January 23, 2013

  Actual Average (KCAK) Record (KCAK)
Temperature  
Mean Temperature 9 °F 26 °F  
Max Temperature 15 °F 33 °F 73 °F (1906)
Min Temperature 3 °F 19 °F -15 °F (1963)
Degree Days  
Heating Degree Days 56 39  
Month to date heating degree days 895  
Since 1 July heating degree days 3225  
Cooling Degree Days 0 0  
Month to date cooling degree days 0  
Year to date cooling degree days 0  
Moisture  
Dew Point 5 °F    
Average Humidity 78    
Maximum Humidity 92    
Minimum Humidity 56    
Precipitation  
Precipitation 0.00 in 0.08 in 0.89 in (1965)
Month to date precipitation 1.96  
Year to date precipitation 1.96  
Snow  
Snow 0.00 in 0.40 in - ()
Month to date snowfall 9.2  
Since 1 July snowfall 22.8  
Snow Depth -    
Sea Level Pressure  
Sea Level Pressure 30.18 in    
Wind  
Wind Speed 6 mph (SW)    
Max Wind Speed 12 mph    
Max Gust Speed -    
Visibility 7 miles    
Events Snow    
T = Trace of Precipitation, MM = Missing Value Source: NWS Daily Summary

Daily Weather History Graph

Daily Weather History Graph

Search for Another Location

Airport:

Trip Planner

Search our weather history database for the weather conditions in past years. The results will help you decide how hot, cold, wet, or windy it might be!

Date:

Astronomy

Jan. 23, 2013 Rise Set
Actual Time 7:43 AM EST 5:32 PM EST
Civil Twilight 7:14 AM EST 6:01 PM EST
Nautical Twilight 6:40 AM EST 6:35 PM EST
Astronomical Twilight 6:08 AM EST 7:07 PM EST
Moon 2:41 PM EST (1/23) 4:54 AM EST (1/23)
Length of Visible Light 10h 47m
Length of Day
9h 48m
Waxing Gibbous, 89% of the Moon is Illuminated
Jan 23
Waxing Gibbous
Jan 26
Full
Feb 3
Last Quarter
Feb 10
New
Feb 17
First Quarter

Hourly Weather History & Observations

Time (EST) Temp. Windchill Dew Point Humidity Pressure Visibility Wind Dir Wind Speed Gust Speed Precip Events Conditions
12:54 AM 5.0 °F -6.9 °F -2.0 °F 73% 30.30 in 10.0 mi WSW 6.9 mph - N/A   Clear
1:54 AM 3.9 °F -6.9 °F -2.9 °F 73% 30.31 in 10.0 mi WSW 5.8 mph - N/A   Clear
2:54 AM 3.9 °F -8.2 °F -2.0 °F 76% 30.32 in 10.0 mi WSW 6.9 mph - N/A   Scattered Clouds
3:54 AM 3.0 °F -10.5 °F -2.0 °F 80% 30.31 in 10.0 mi WSW 8.1 mph - N/A   Clear
4:54 AM 3.9 °F -10.4 °F -2.0 °F 76% 30.30 in 10.0 mi West 9.2 mph - N/A   Scattered Clouds
5:54 AM 3.9 °F -9.4 °F -2.0 °F 76% 30.31 in 10.0 mi West 8.1 mph - N/A   Clear
6:54 AM 3.2 °F -9.1 °F -2.2 °F 78% 30.24 in 10.0 mi WSW 6.9 mph - N/A   Clear
7:54 AM 5.0 °F -8.1 °F -2.0 °F 73% 30.31 in 10.0 mi WSW 8.1 mph - N/A   Mostly Cloudy
8:54 AM 7.0 °F -6.6 °F -0.0 °F 73% 30.31 in 10.0 mi WSW 9.2 mph - N/A   Overcast
9:54 AM 8.1 °F -4.3 °F 1.0 °F 73% 30.31 in 10.0 mi WSW 8.1 mph - N/A   Overcast
10:54 AM 10.9 °F -0.8 °F 1.9 °F 67% 30.30 in 10.0 mi West 8.1 mph - N/A   Mostly Cloudy
11:54 AM 12.9 °F -0.2 °F 3.0 °F 65% 30.28 in 10.0 mi WSW 10.4 mph - N/A   Mostly Cloudy
12:54 PM 14.0 °F 2.0 °F 3.0 °F 62% 30.25 in 10.0 mi SW 9.2 mph - N/A   Overcast
1:54 PM 14.0 °F 0.5 °F 3.9 °F 64% 30.22 in 10.0 mi WSW 11.5 mph - N/A   Overcast
2:54 PM 15.1 °F 4.2 °F 5.0 °F 64% 30.21 in 6.0 mi SSW 8.1 mph - N/A   Haze
3:54 PM 15.1 °F 4.2 °F 1.9 °F 56% 30.20 in 10.0 mi West 8.1 mph - N/A   Overcast
4:54 PM 15.1 °F 5.2 °F 1.9 °F 56% 30.18 in 10.0 mi SW 6.9 mph - N/A   Overcast
5:54 PM 15.1 °F 5.2 °F 5.0 °F 64% 30.16 in 8.0 mi SW 6.9 mph - N/A   Overcast
6:54 PM 14.0 °F 3.9 °F 9.0 °F 80% 30.15 in 5.0 mi SSW 6.9 mph - 0.00 in   Haze
7:54 PM 14.0 °F 8.2 °F 10.0 °F 84% 30.14 in 5.0 mi South 3.5 mph - 0.00 in   Overcast
8:33 PM 14.0 °F 6.5 °F 10.4 °F 86% 30.07 in 2.5 mi South 4.6 mph - 0.00 in Snow Light Snow
8:41 PM 14.0 °F 6.5 °F 10.4 °F 86% 30.07 in 3.0 mi South 4.6 mph - 0.00 in Snow Light Snow
8:54 PM 14.0 °F 8.2 °F 10.0 °F 84% 30.13 in 3.0 mi South 3.5 mph - 0.00 in Snow Light Snow
9:09 PM 14.0 °F 8.2 °F 10.4 °F 86% 30.06 in 2.5 mi South 3.5 mph - 0.00 in Snow Light Snow
9:26 PM 14.0 °F - 10.4 °F 86% 30.06 in 2.0 mi Calm Calm - 0.00 in Snow Light Snow
9:54 PM 12.9 °F 6.9 °F 10.0 °F 88% 30.12 in 2.5 mi South 3.5 mph - 0.00 in Snow Light Snow
10:03 PM 12.2 °F 6.1 °F 10.4 °F 92% 30.05 in 3.0 mi South 3.5 mph - 0.00 in Snow Light Snow
10:27 PM 12.2 °F - 10.4 °F 92% 30.05 in 2.5 mi Calm Calm - 0.00 in Snow Light Snow
10:39 PM 12.2 °F - 10.4 °F 92% 30.05 in 3.0 mi Calm Calm - 0.00 in Snow Light Snow
10:54 PM 12.9 °F - 10.0 °F 88% 30.11 in 3.0 mi Calm Calm - 0.00 in Snow Light Snow
11:29 PM 12.2 °F - 10.4 °F 92% 30.04 in 2.0 mi Calm Calm - 0.00 in Snow Light Snow
11:45 PM 12.2 °F - 10.4 °F 92% 30.04 in 4.0 mi Calm Calm - 0.00 in   Overcast
11:54 PM 12.9 °F - 10.0 °F 88% 30.10 in 5.0 mi Calm Calm - 0.00 in   Overcast